Regional Weather Roundup
Issued by NWS Little Rock, AR

Home | Current Version | Previous Version | Text Only | Print | Product List | Glossary Off
Versions: 1 2 3 4 5 6 7 8 9 10 11 12 13 14 15 16 17 18 19 20 21 22 23 24 25 26 27 28 29 30 31 32

000
ASUS44 KLZK 241705
RWRLZK

WEATHER ROUNDUP FOR ARKANSAS
NATIONAL WEATHER SERVICE LITTLE ROCK AR
1200 PM CDT SAT SEP 24 2016

NOTE: "FAIR" INDICATES FEW OR NO CLOUDS BELOW 12,000 FEET WITH NO
SIGNIFICANT WEATHER AND/OR OBSTRUCTIONS TO VISIBILITY.

ARZ001-003-010-029-241800-
NORTHWEST ARKANSAS

CITY           SKY/WX    TMP DP  RH WIND       PRES   REMARKS
FAYETTEVILLE   MOSUNNY   85  71  63 S14       30.09F HX  90
FORT SMITH     MOSUNNY   89  67  47 SW9       30.05F HX  92
HARRISON       SUNNY     85  69  58 SE10G17   30.11F HX  89
BENTONVILLE    PTSUNNY   84  68  58 SW8       30.10F HX  87
ROGERS         PTSUNNY   83  70  64 SW10      30.10F HX  87
SILOAM SPGS    SUNNY     88  64  45 S17         N/A  HX  89
HIGHFILL       MOSUNNY   86  71  60 S10       30.09S HX  91
SPRINGDALE     PTSUNNY   86  72  62 S9        30.11F HX  92
$$

ARZ004-005-016-241800-
NORTH CENTRAL ARKANSAS

CITY           SKY/WX    TMP DP  RH WIND       PRES   REMARKS
BATESVILLE     SUNNY     88  72  58 S5        30.09F HX  94
FLIPPIN        SUNNY     84  70  61 S6        30.08F HX  88
MTN HOME       SUNNY     85  71  63 VRB6      30.10F HX  90
$$

ARZ040-041-241800-
WEST CENTRAL ARKANSAS

CITY           SKY/WX    TMP DP  RH WIND       PRES   REMARKS
MENA           MOSUNNY   86  73  66 S3        30.10S HX  93
MOUNT IDA      MOSUNNY   85  69  58 VRB6      30.08R HX  89
$$

ARZ009-017-025-026-028-241800-
NORTHEAST ARKANSAS

CITY           SKY/WX    TMP DP  RH WIND       PRES   REMARKS
CORNING          N/A     90  72  55 S3        30.09F HX  96
JONESBORO      SUNNY     91  67  44 SW7       30.08F HX  94
NEWPORT        SUNNY     90  69  50 VRB3      30.08F HX  94
WALNUT RIDGE   SUNNY     88  68  51 W3        30.08F HX  91
BLYTHEVILLE    SUNNY     93  66  40 S6        30.09F HX  96
$$

ARZ022-023-033-042-044-241800-
CENTRAL ARKANSAS

CITY           SKY/WX    TMP DP  RH WIND       PRES   REMARKS
LITTLE ROCK    MOSUNNY   91  70  49 S6        30.08F HX  96
JACKSONVILLE   SUNNY     89  71  53 S6        30.08S HX  95
SEARCY         SUNNY     90  72  55 CALM      30.10F HX  97
HOT SPRINGS    SUNNY     87  72  60 S6        30.09S HX  93
RUSSELLVILLE   SUNNY     87  72  60 VRB3      30.07S HX  93
$$

ARZ036-241800-
EAST ARKANSAS

CITY           SKY/WX    TMP DP  RH WIND       PRES   REMARKS
WEST MEMPHIS   SUNNY     92  63  38 CALM      30.07F HX  93
$$

ARZ050-053-066-070-073-241800-
SOUTHWEST ARKANSAS

CITY           SKY/WX    TMP DP  RH WIND       PRES   REMARKS
ARKADELPHIA    FAIR      88  75  65 S3        30.08F HX  97
TEXARKANA      SUNNY     89  69  51 S8        30.07F HX  93
EL DORADO      SUNNY     88  71  57 VRB6      30.09S HX  94
DE QUEEN       MOSUNNY   87  74  64 S9        30.05S HX  95
$$

ARZ056-057-069-241800-
SOUTHEAST ARKANSAS

CITY           SKY/WX    TMP DP  RH WIND       PRES   REMARKS
PINE BLUFF     SUNNY     88  71  57 VRB3      30.08F HX  94
STUTTGART      SUNNY     90  68  48 SW5       30.09F HX  93
MONTICELLO     SUNNY     90  70  51 VRB5      30.08F HX  95

$$






USA.gov is the U.S. government's official web portal to all federal, state and local government web resources and services.